This is the latest recevied weather packets stored in our database for station/object N4JTC. If no packets are shown the sender has not sent any weather packets the latest 10 day(s).
| Time | Temp. | Humidity | Pressure | Rain* | Wind** | Luminosity | Snow |
|---|---|---|---|---|---|---|---|
| 1777578903 | 25.56° C | 76% | 1011.7 hPa | 0 mm | - | 161 W/m² | - |
| 1777578304 | 25.56° C | 74% | 1011.9 hPa | 0 mm | - | 141 W/m² | - |
| 1777578003 | 26.11° C | 73% | 1011.9 hPa | 0 mm | - | 137 W/m² | - |
| 1777577703 | 25.56° C | 74% | 1012.1 hPa | 0 mm | - | 105 W/m² | - |
| 1777577403 | 26.11° C | 72% | 1012 hPa | 0 mm | - | 91 W/m² | - |
| 1777577103 | 26.11° C | 72% | 1012.2 hPa | 0 mm | - | 96 W/m² | - |
| 1777576503 | 26.67° C | 70% | 1011.8 hPa | 0 mm | - | 86 W/m² | - |
| 1777576204 | 27.22° C | 69% | 1012.2 hPa | 0 mm | - | 112 W/m² | - |
| 1777575903 | 27.22° C | 69% | 1012.1 hPa | 0 mm | - | 158 W/m² | - |
| 1777575603 | 27.78° C | 68% | 1012.2 hPa | 0 mm | - | 189 W/m² | - |
| 1777575303 | 28.33° C | 68% | 1012.1 hPa | 0 mm | - | 300 W/m² | - |
| 1777575003 | 27.78° C | 68% | 1012 hPa | 0 mm | - | 418 W/m² | - |
| 1777574703 | 28.33° C | 68% | 1012.1 hPa | 0 mm | - | 404 W/m² | - |
| 1777574103 | 28.89° C | 66% | 1012 hPa | 0 mm | - | 570 W/m² | - |
| 1777573503 | 30° C | 63% | 1012 hPa | 0 mm | - | 447 W/m² | - |
| 1777573204 | 30° C | 64% | 1011.9 hPa | 0 mm | - | 700 W/m² | - |
| 1777572903 | 29.44° C | 64% | 1012 hPa | 0 mm | - | 989 W/m² | - |
| 1777572604 | 29.44° C | 63% | 1012.1 hPa | 0 mm | - | 999 W/m² | - |
| 1777572303 | 29.44° C | 63% | 1012.5 hPa | 0 mm | - | 723 W/m² | - |
| 1777572003 | 29.44° C | 63% | 1012.3 hPa | 0 mm | - | 467 W/m² | - |
| 1777571703 | 28.89° C | 63% | 1012.4 hPa | 0 mm | - | 1097 W/m² | - |
| 1777571403 | 29.44° C | 63% | 1012.2 hPa | 0 mm | - | 555 W/m² | - |
| 1777571103 | 30° C | 63% | 1012.3 hPa | 0 mm | - | 956 W/m² | - |
| 1777570804 | 29.44° C | 64% | 1012.1 hPa | 0 mm | - | 934 W/m² | - |
| 1777570503 | 28.89° C | 62% | 1012.5 hPa | 0 mm | - | 1014 W/m² | - |
* Rain latest hour (hover to see other rain measurements)
** Current wind speed in m/s (hover to see current wind gust speed)